Time,TemperatureF,DewpointF,PressureIn,WindDirection,WindDirectionDegrees,WindSpeedMPH,WindSpeedGustMPH,Humidity,HourlyPrecipIn,Conditions,Clouds,dailyrainin,SoftwareType,DateUTC
2013-03-02 00:00:00,38.4,28.8,29.84,North,359,1.0,1.0,68,0.00,,,0.00,Wunderground v.1.15,2013-03-02 05:00:00,
2013-03-02 00:05:00,38.3,29.0,29.84,North,359,0.0,1.0,69,0.00,,,0.00,Wunderground v.1.15,2013-03-02 05:05:00,
2013-03-02 00:10:00,38.2,28.9,29.84,North,359,1.0,1.0,69,0.00,,,0.00,Wunderground v.1.15,2013-03-02 05:10:00,
2013-03-02 00:15:00,38.1,28.1,29.84,North,359,0.0,1.0,67,0.00,,,0.00,Wunderground v.1.15,2013-03-02 05:15:00,
2013-03-02 00:20:00,38.1,27.7,29.84,North,359,0.0,0.0,66,0.00,,,0.00,Wunderground v.1.15,2013-03-02 05:20:00,
2013-03-02 00:30:00,38.0,28.0,29.84,North,359,0.0,0.0,67,0.00,,,0.00,Wunderground v.1.15,2013-03-02 05:30:00,
2013-03-02 00:35:00,37.9,27.2,29.84,North,359,0.0,0.0,65,0.00,,,0.00,Wunderground v.1.15,2013-03-02 05:35:00,
2013-03-02 00:40:00,37.8,26.7,29.84,North,359,0.0,0.0,64,0.00,,,0.00,Wunderground v.1.15,2013-03-02 05:40:00,
2013-03-02 00:45:00,37.7,27.0,29.83,North,359,0.0,0.0,65,0.00,,,0.00,Wunderground v.1.15,2013-03-02 05:45:00,
2013-03-02 00:50:00,37.7,26.6,29.83,North,359,0.0,0.0,64,0.00,,,0.00,Wunderground v.1.15,2013-03-02 05:50:00,
2013-03-02 01:00:00,37.6,28.7,29.83,North,359,0.0,0.0,70,0.00,,,0.00,Wunderground v.1.15,2013-03-02 06:00:00,
2013-03-02 01:05:00,37.5,28.9,29.83,North,359,0.0,1.0,71,0.00,,,0.00,Wunderground v.1.15,2013-03-02 06:05:00,
2013-03-02 01:10:00,37.4,28.9,29.83,North,359,0.0,1.0,71,0.00,,,0.00,Wunderground v.1.15,2013-03-02 06:10:00,
2013-03-02 01:15:00,37.3,29.4,29.84,North,359,0.0,1.0,73,0.00,,,0.00,Wunderground v.1.15,2013-03-02 06:15:00,
2013-03-02 01:20:00,37.2,29.7,29.84,North,359,0.0,1.0,74,0.00,,,0.00,Wunderground v.1.15,2013-03-02 06:20:00,
2013-03-02 01:30:00,37.0,29.5,29.84,North,359,0.0,1.0,74,0.00,,,0.00,Wunderground v.1.15,2013-03-02 06:30:00,
2013-03-02 01:35:00,36.9,29.7,29.84,North,359,0.0,1.0,75,0.00,,,0.00,Wunderground v.1.15,2013-03-02 06:35:00,
2013-03-02 01:40:00,36.8,29.9,29.84,North,359,0.0,1.0,76,0.00,,,0.00,Wunderground v.1.15,2013-03-02 06:40:00,
2013-03-02 01:45:00,36.7,29.5,29.85,North,359,0.0,1.0,75,0.00,,,0.00,Wunderground v.1.15,2013-03-02 06:45:00,
2013-03-02 01:55:00,36.6,28.8,29.85,North,359,0.0,1.0,73,0.00,,,0.00,Wunderground v.1.15,2013-03-02 06:55:00,
2013-03-02 02:00:00,36.5,29.0,29.85,North,359,0.0,1.0,74,0.00,,,0.00,Wunderground v.1.15,2013-03-02 07:00:00,
2013-03-02 02:05:00,36.5,29.7,29.85,North,359,0.0,1.0,76,0.00,,,0.00,Wunderground v.1.15,2013-03-02 07:05:00,
2013-03-02 02:10:00,36.4,29.6,29.85,North,359,0.0,1.0,76,0.00,,,0.00,Wunderground v.1.15,2013-03-02 07:10:00,
2013-03-02 02:15:00,36.4,29.9,29.84,North,359,0.0,1.0,77,0.00,,,0.00,Wunderground v.1.15,2013-03-02 07:15:00,
2013-03-02 02:25:00,36.3,30.1,29.84,North,359,0.0,1.0,78,0.00,,,0.00,Wunderground v.1.15,2013-03-02 07:25:00,
2013-03-02 02:30:00,36.3,30.1,29.84,North,359,0.0,1.0,78,0.00,,,0.00,Wunderground v.1.15,2013-03-02 07:30:00,
2013-03-02 02:35:00,36.3,30.1,29.84,North,359,0.0,1.0,78,0.00,,,0.00,Wunderground v.1.15,2013-03-02 07:35:00,
2013-03-02 02:40:00,36.3,30.1,29.84,North,359,0.0,1.0,78,0.00,,,0.00,Wunderground v.1.15,2013-03-02 07:40:00,
2013-03-02 02:50:00,36.2,30.3,29.83,North,359,0.0,1.0,79,0.00,,,0.00,Wunderground v.1.15,2013-03-02 07:50:00,
2013-03-02 02:55:00,36.2,30.3,29.83,North,359,0.0,1.0,79,0.00,,,0.00,Wunderground v.1.15,2013-03-02 07:55:00,
2013-03-02 03:00:00,36.2,30.3,29.83,North,359,0.0,1.0,79,0.00,,,0.00,Wunderground v.1.15,2013-03-02 08:00:00,
2013-03-02 03:05:00,36.1,30.5,29.83,North,359,0.0,1.0,80,0.00,,,0.00,Wunderground v.1.15,2013-03-02 08:05:00,
2013-03-02 03:15:00,36.0,30.1,29.83,North,359,0.0,1.0,79,0.00,,,0.00,Wunderground v.1.15,2013-03-02 08:15:00,
2013-03-02 03:20:00,35.9,30.0,29.83,North,359,0.0,1.0,79,0.00,,,0.00,Wunderground v.1.15,2013-03-02 08:20:00,
2013-03-02 03:25:00,35.9,30.0,29.83,North,359,0.0,1.0,79,0.00,,,0.00,Wunderground v.1.15,2013-03-02 08:25:00,
2013-03-02 03:30:00,35.9,30.3,29.83,North,359,0.0,1.0,80,0.00,,,0.00,Wunderground v.1.15,2013-03-02 08:30:00,
2013-03-02 03:35:00,35.9,30.3,29.83,North,359,0.0,1.0,80,0.00,,,0.00,Wunderground v.1.15,2013-03-02 08:35:00,
2013-03-02 03:45:00,35.8,30.8,29.83,North,359,0.0,1.0,82,0.00,,,0.00,Wunderground v.1.15,2013-03-02 08:45:00,
2013-03-02 03:50:00,35.8,30.2,29.83,North,359,0.0,1.0,80,0.00,,,0.00,Wunderground v.1.15,2013-03-02 08:50:00,
2013-03-02 03:55:00,35.8,30.5,29.83,North,359,0.0,1.0,81,0.00,,,0.00,Wunderground v.1.15,2013-03-02 08:55:00,
2013-03-02 04:00:00,35.7,30.4,29.82,North,359,0.0,1.0,81,0.00,,,0.00,Wunderground v.1.15,2013-03-02 09:00:00,
2013-03-02 04:05:00,35.7,30.4,29.82,North,359,0.0,1.0,81,0.00,,,0.00,Wunderground v.1.15,2013-03-02 09:05:00,
2013-03-02 04:15:00,35.5,29.9,29.82,North,359,0.0,1.0,80,0.00,,,0.00,Wunderground v.1.15,2013-03-02 09:15:00,
2013-03-02 04:20:00,35.5,29.6,29.82,North,359,0.0,1.0,79,0.00,,,0.00,Wunderground v.1.15,2013-03-02 09:20:00,
2013-03-02 04:25:00,35.4,29.8,29.82,North,359,0.0,1.0,80,0.00,,,0.00,Wunderground v.1.15,2013-03-02 09:25:00,
2013-03-02 04:35:00,35.4,30.1,29.82,North,359,0.0,1.0,81,0.00,,,0.00,Wunderground v.1.15,2013-03-02 09:35:00,
2013-03-02 04:40:00,35.3,30.1,29.82,North,359,0.0,1.0,81,0.00,,,0.00,Wunderground v.1.15,2013-03-02 09:40:00,
2013-03-02 04:45:00,35.3,30.1,29.82,North,359,0.0,1.0,81,0.00,,,0.00,Wunderground v.1.15,2013-03-02 09:45:00,
2013-03-02 04:50:00,35.2,30.0,29.82,North,359,0.0,1.0,81,0.00,,,0.00,Wunderground v.1.15,2013-03-02 09:50:00,
2013-03-02 04:55:00,35.2,30.0,29.82,North,359,0.0,1.0,81,0.00,,,0.00,Wunderground v.1.15,2013-03-02 09:55:00,
2013-03-02 05:05:00,34.8,29.9,29.82,North,359,0.0,1.0,82,0.00,,,0.00,Wunderground v.1.15,2013-03-02 10:05:00,
2013-03-02 05:10:00,34.7,29.8,29.82,North,359,0.0,1.0,82,0.00,,,0.00,Wunderground v.1.15,2013-03-02 10:10:00,
2013-03-02 05:15:00,34.5,29.9,29.82,North,359,0.0,1.0,83,0.00,,,0.00,Wunderground v.1.15,2013-03-02 10:15:00,
2013-03-02 05:25:00,34.0,29.4,29.82,North,359,0.0,1.0,83,0.00,,,0.00,Wunderground v.1.15,2013-03-02 10:25:00,
2013-03-02 05:30:00,33.7,29.1,29.82,North,359,0.0,1.0,83,0.00,,,0.00,Wunderground v.1.15,2013-03-02 10:30:00,
2013-03-02 05:35:00,33.4,28.8,29.82,North,359,0.0,1.0,83,0.00,,,0.00,Wunderground v.1.15,2013-03-02 10:35:00,
2013-03-02 05:40:00,33.1,28.5,29.82,North,359,0.0,1.0,83,0.00,,,0.00,Wunderground v.1.15,2013-03-02 10:40:00,
2013-03-02 05:50:00,32.4,28.1,29.81,North,359,0.0,1.0,84,0.00,,,0.00,Wunderground v.1.15,2013-03-02 10:50:00,
2013-03-02 05:55:00,32.0,27.7,29.81,North,359,0.0,1.0,84,0.00,,,0.00,Wunderground v.1.15,2013-03-02 10:55:00,
2013-03-02 06:00:00,31.8,27.5,29.82,North,359,0.0,1.0,84,0.00,,,0.00,Wunderground v.1.15,2013-03-02 11:00:00,
2013-03-02 06:05:00,31.5,27.5,29.82,North,359,0.0,1.0,85,0.00,,,0.00,Wunderground v.1.15,2013-03-02 11:05:00,
2013-03-02 06:10:00,31.2,27.2,29.82,North,359,0.0,1.0,85,0.00,,,0.00,Wunderground v.1.15,2013-03-02 11:10:00,
2013-03-02 06:20:00,30.8,27.1,29.82,North,359,0.0,1.0,86,0.00,,,0.00,Wunderground v.1.15,2013-03-02 11:20:00,
2013-03-02 06:25:00,30.6,27.2,29.82,North,359,0.0,1.0,87,0.00,,,0.00,Wunderground v.1.15,2013-03-02 11:25:00,
2013-03-02 06:30:00,30.3,26.9,29.82,North,359,0.0,1.0,87,0.00,,,0.00,Wunderground v.1.15,2013-03-02 11:30:00,
2013-03-02 06:35:00,30.1,27.0,29.82,North,359,0.0,1.0,88,0.00,,,0.00,Wunderground v.1.15,2013-03-02 11:35:00,
2013-03-02 06:45:00,29.7,26.6,29.83,North,359,0.0,1.0,88,0.00,,,0.00,Wunderground v.1.15,2013-03-02 11:45:00,
2013-03-02 06:50:00,29.6,26.5,29.83,North,359,0.0,1.0,88,0.00,,,0.00,Wunderground v.1.15,2013-03-02 11:50:00,
2013-03-02 06:55:00,29.4,26.6,29.83,North,359,0.0,1.0,89,0.00,,,0.00,Wunderground v.1.15,2013-03-02 11:55:00,
2013-03-02 07:00:00,29.3,26.5,29.83,North,359,0.0,1.0,89,0.00,,,0.00,Wunderground v.1.15,2013-03-02 12:00:00,
2013-03-02 07:05:00,29.2,26.4,29.83,North,359,0.0,1.0,89,0.00,,,0.00,Wunderground v.1.15,2013-03-02 12:05:00,
2013-03-02 07:15:00,29.2,26.4,29.83,North,359,0.0,1.0,89,0.00,,,0.00,Wunderground v.1.15,2013-03-02 12:15:00,
2013-03-02 07:20:00,29.2,26.6,29.83,North,359,0.0,1.0,90,0.00,,,0.00,Wunderground v.1.15,2013-03-02 12:20:00,
2013-03-02 07:25:00,29.2,26.6,29.83,North,359,0.0,1.0,90,0.00,,,0.00,Wunderground v.1.15,2013-03-02 12:25:00,
2013-03-02 07:30:00,29.3,26.7,29.84,North,359,0.0,1.0,90,0.00,,,0.00,Wunderground v.1.15,2013-03-02 12:30:00,
2013-03-02 07:40:00,29.4,26.8,29.84,North,359,0.0,1.0,90,0.00,,,0.00,Wunderground v.1.15,2013-03-02 12:40:00,
2013-03-02 07:45:00,29.6,27.0,29.84,North,359,0.0,1.0,90,0.00,,,0.00,Wunderground v.1.15,2013-03-02 12:45:00,
2013-03-02 07:50:00,29.7,27.1,29.84,North,359,0.0,1.0,90,0.00,,,0.00,Wunderground v.1.15,2013-03-02 12:50:00,
2013-03-02 07:55:00,30.0,27.4,29.84,North,359,0.0,1.0,90,0.00,,,0.00,Wunderground v.1.15,2013-03-02 12:55:00,
2013-03-02 08:00:00,30.2,27.6,29.84,North,359,0.0,1.0,90,0.00,,,0.00,Wunderground v.1.15,2013-03-02 13:00:00,
2013-03-02 08:10:00,31.0,28.1,29.84,North,359,0.0,1.0,89,0.00,,,0.00,Wunderground v.1.15,2013-03-02 13:10:00,
2013-03-02 08:15:00,31.8,29.2,29.84,North,359,0.0,1.0,90,0.00,,,0.00,Wunderground v.1.15,2013-03-02 13:15:00,
2013-03-02 08:20:00,32.7,29.8,29.84,North,359,1.0,1.0,89,0.00,,,0.00,Wunderground v.1.15,2013-03-02 13:20:00,
2013-03-02 08:25:00,33.7,29.7,29.84,North,359,0.0,1.0,85,0.00,,,0.00,Wunderground v.1.15,2013-03-02 13:25:00,
2013-03-02 08:35:00,35.1,29.2,29.84,North,359,0.0,1.0,79,0.00,,,0.00,Wunderground v.1.15,2013-03-02 13:35:00,
2013-03-02 08:40:00,35.7,29.2,29.84,North,359,0.0,1.0,77,0.00,,,0.00,Wunderground v.1.15,2013-03-02 13:40:00,
2013-03-02 08:45:00,36.2,29.4,29.84,North,359,0.0,1.0,76,0.00,,,0.00,Wunderground v.1.15,2013-03-02 13:45:00,
2013-03-02 08:50:00,36.6,29.1,29.84,North,359,0.0,1.0,74,0.00,,,0.00,Wunderground v.1.15,2013-03-02 13:50:00,
2013-03-02 09:00:00,37.5,28.9,29.84,North,359,0.0,1.0,71,0.00,,,0.00,Wunderground v.1.15,2013-03-02 14:00:00,
2013-03-02 09:05:00,37.9,28.3,29.84,North,359,1.0,1.0,68,0.00,,,0.00,Wunderground v.1.15,2013-03-02 14:05:00,
2013-03-02 09:10:00,38.3,28.3,29.84,North,359,1.0,2.0,67,0.00,,,0.00,Wunderground v.1.15,2013-03-02 14:10:00,
2013-03-02 09:15:00,38.5,27.7,29.84,NNE,18,1.0,2.0,65,0.00,,,0.00,Wunderground v.1.15,2013-03-02 14:15:00,
2013-03-02 09:25:00,39.0,27.5,29.84,North,359,1.0,1.0,63,0.00,,,0.00,Wunderground v.1.15,2013-03-02 14:25:00,
2013-03-02 09:30:00,39.1,27.6,29.83,North,359,1.0,2.0,63,0.00,,,0.00,Wunderground v.1.15,2013-03-02 14:30:00,
2013-03-02 09:35:00,39.3,27.4,29.83,North,359,1.0,2.0,62,0.00,,,0.00,Wunderground v.1.15,2013-03-02 14:35:00,
2013-03-02 09:40:00,39.5,27.5,29.83,North,359,1.0,3.0,62,0.00,,,0.00,Wunderground v.1.15,2013-03-02 14:40:00,
2013-03-02 09:45:00,39.8,27.8,29.83,North,359,1.0,3.0,62,0.00,,,0.00,Wunderground v.1.15,2013-03-02 14:45:00,
2013-03-02 09:55:00,40.4,27.2,29.83,North,359,1.0,2.0,59,0.00,,,0.00,Wunderground v.1.15,2013-03-02 14:55:00,
2013-03-02 10:00:00,40.6,27.0,29.82,North,359,2.0,2.0,58,0.00,,,0.00,Wunderground v.1.15,2013-03-02 15:00:00,
2013-03-02 10:05:00,40.9,26.4,29.82,NE,37,2.0,2.0,56,0.00,,,0.00,Wunderground v.1.15,2013-03-02 15:05:00,
2013-03-02 10:10:00,41.1,26.6,29.82,North,359,1.0,2.0,56,0.00,,,0.00,Wunderground v.1.15,2013-03-02 15:10:00,
2013-03-02 10:15:00,41.2,26.2,29.82,NE,45,2.0,2.0,55,0.00,,,0.00,Wunderground v.1.15,2013-03-02 15:15:00,
2013-03-02 10:25:00,41.2,27.1,29.82,North,359,2.0,4.0,57,0.00,,,0.00,Wunderground v.1.15,2013-03-02 15:25:00,
2013-03-02 10:30:00,41.6,26.2,29.82,North,359,2.0,2.0,54,0.00,,,0.00,Wunderground v.1.15,2013-03-02 15:30:00,
2013-03-02 10:35:00,42.2,27.2,29.82,North,359,2.0,2.0,55,0.00,,,0.00,Wunderground v.1.15,2013-03-02 15:35:00,
2013-03-02 10:40:00,42.4,26.5,29.82,North,7,2.0,4.0,53,0.00,,,0.00,Wunderground v.1.15,2013-03-02 15:40:00,
2013-03-02 10:45:00,42.5,25.6,29.81,North,359,2.0,4.0,51,0.00,,,0.00,Wunderground v.1.15,2013-03-02 15:45:00,
2013-03-02 10:55:00,42.6,26.6,29.81,North,9,2.0,3.0,53,0.00,,,0.00,Wunderground v.1.15,2013-03-02 15:55:00,
2013-03-02 11:00:00,42.5,25.6,29.81,North,1,2.0,2.0,51,0.00,,,0.00,Wunderground v.1.15,2013-03-02 16:00:00,
2013-03-02 11:05:00,42.9,26.5,29.81,North,359,2.0,2.0,52,0.00,,,0.00,Wunderground v.1.15,2013-03-02 16:05:00,
2013-03-02 11:15:00,42.8,26.4,29.81,North,359,2.0,2.0,52,0.00,,,0.00,Wunderground v.1.15,2013-03-02 16:15:00,
2013-03-02 11:20:00,43.5,26.6,29.81,North,359,2.0,2.0,51,0.00,,,0.00,Wunderground v.1.15,2013-03-02 16:20:00,
2013-03-02 11:25:00,43.6,26.2,29.81,North,0,2.0,3.0,50,0.00,,,0.00,Wunderground v.1.15,2013-03-02 16:25:00,
2013-03-02 11:30:00,43.5,26.6,29.81,North,359,2.0,3.0,51,0.00,,,0.00,Wunderground v.1.15,2013-03-02 16:30:00,
2013-03-02 11:35:00,43.3,25.4,29.81,North,359,2.0,3.0,49,0.00,,,0.00,Wunderground v.1.15,2013-03-02 16:35:00,
2013-03-02 11:45:00,44.7,27.2,29.80,North,359,2.0,2.0,50,0.00,,,0.00,Wunderground v.1.15,2013-03-02 16:45:00,
2013-03-02 11:50:00,45.4,26.8,29.80,North,359,2.0,3.0,48,0.00,,,0.00,Wunderground v.1.15,2013-03-02 16:50:00,
2013-03-02 11:55:00,45.4,26.8,29.80,North,359,2.0,3.0,48,0.00,,,0.00,Wunderground v.1.15,2013-03-02 16:55:00,
2013-03-02 12:00:00,45.3,26.2,29.80,North,359,3.0,3.0,47,0.00,,,0.00,Wunderground v.1.15,2013-03-02 17:00:00,
2013-03-02 12:05:00,46.0,27.4,29.80,North,359,2.0,3.0,48,0.00,,,0.00,Wunderground v.1.15,2013-03-02 17:05:00,
2013-03-02 12:15:00,46.0,26.4,29.79,North,359,3.0,5.0,46,0.00,,,0.00,Wunderground v.1.15,2013-03-02 17:15:00,
2013-03-02 12:25:00,45.7,26.6,29.79,North,359,2.0,3.0,47,0.00,,,0.00,Wunderground v.1.15,2013-03-02 17:25:00,
2013-03-02 12:30:00,45.3,26.2,29.79,North,359,2.0,2.0,47,0.00,,,0.00,Wunderground v.1.15,2013-03-02 17:30:00,
2013-03-02 12:35:00,44.7,26.2,29.79,North,359,2.0,2.0,48,0.00,,,0.00,Wunderground v.1.15,2013-03-02 17:35:00,
2013-03-02 12:40:00,44.5,26.0,29.79,North,359,2.0,2.0,48,0.00,,,0.00,Wunderground v.1.15,2013-03-02 17:40:00,
2013-03-02 12:45:00,44.4,25.9,29.78,North,359,2.0,2.0,48,0.00,,,0.00,Wunderground v.1.15,2013-03-02 17:45:00,
2013-03-02 12:55:00,44.5,26.0,29.78,North,359,3.0,3.0,48,0.00,,,0.00,Wunderground v.1.15,2013-03-02 17:55:00,
2013-03-02 13:00:00,45.0,27.0,29.78,North,359,2.0,2.0,49,0.00,,,0.00,Wunderground v.1.15,2013-03-02 18:00:00,
2013-03-02 13:05:00,45.5,26.9,29.78,North,359,2.0,2.0,48,0.00,,,0.00,Wunderground v.1.15,2013-03-02 18:05:00,
2013-03-02 13:10:00,45.4,26.3,29.78,North,359,2.0,2.0,47,0.00,,,0.00,Wunderground v.1.15,2013-03-02 18:10:00,
2013-03-02 13:15:00,45.2,26.7,29.77,North,359,2.0,4.0,48,0.00,,,0.00,Wunderground v.1.15,2013-03-02 18:15:00,
2013-03-02 13:25:00,45.3,26.7,29.77,NNE,27,2.0,4.0,48,0.00,,,0.00,Wunderground v.1.15,2013-03-02 18:25:00,
2013-03-02 13:30:00,45.1,26.1,29.77,North,4,2.0,4.0,47,0.00,,,0.00,Wunderground v.1.15,2013-03-02 18:30:00,
2013-03-02 13:35:00,44.8,26.3,29.77,North,2,2.0,4.0,48,0.00,,,0.00,Wunderground v.1.15,2013-03-02 18:35:00,
2013-03-02 13:40:00,44.7,26.2,29.77,North,359,2.0,2.0,48,0.00,,,0.00,Wunderground v.1.15,2013-03-02 18:40:00,
2013-03-02 13:50:00,44.8,26.3,29.76,North,359,2.0,2.0,48,0.00,,,0.00,Wunderground v.1.15,2013-03-02 18:50:00,
2013-03-02 13:55:00,44.8,26.8,29.76,North,359,2.0,3.0,49,0.00,,,0.00,Wunderground v.1.15,2013-03-02 18:55:00,
2013-03-02 14:00:00,44.8,26.3,29.76,North,359,2.0,2.0,48,0.00,,,0.00,Wunderground v.1.15,2013-03-02 19:00:00,
2013-03-02 14:05:00,44.7,26.2,29.76,North,359,2.0,3.0,48,0.00,,,0.00,Wunderground v.1.15,2013-03-02 19:05:00,
2013-03-02 14:15:00,44.6,26.1,29.76,North,359,2.0,4.0,48,0.00,,,0.00,Wunderground v.1.15,2013-03-02 19:15:00,
2013-03-02 14:20:00,44.5,27.0,29.76,North,359,3.0,3.0,50,0.00,,,0.00,Wunderground v.1.15,2013-03-02 19:20:00,
2013-03-02 14:25:00,44.7,26.2,29.76,North,359,3.0,4.0,48,0.00,,,0.00,Wunderground v.1.15,2013-03-02 19:25:00,
2013-03-02 14:30:00,44.5,26.5,29.76,North,0,2.0,2.0,49,0.00,,,0.00,Wunderground v.1.15,2013-03-02 19:30:00,
2013-03-02 14:35:00,44.5,27.0,29.76,North,359,2.0,4.0,50,0.00,,,0.00,Wunderground v.1.15,2013-03-02 19:35:00,
2013-03-02 14:45:00,44.4,26.4,29.76,North,359,2.0,4.0,49,0.00,,,0.00,Wunderground v.1.15,2013-03-02 19:45:00,
2013-03-02 14:50:00,44.4,26.4,29.76,North,359,1.0,4.0,49,0.00,,,0.00,Wunderground v.1.15,2013-03-02 19:50:00,
2013-03-02 14:55:00,44.3,26.3,29.76,North,359,2.0,4.0,49,0.00,,,0.00,Wunderground v.1.15,2013-03-02 19:55:00,
2013-03-02 15:00:00,44.3,26.3,29.76,North,359,2.0,4.0,49,0.00,,,0.00,Wunderground v.1.15,2013-03-02 20:00:00,
2013-03-02 15:10:00,44.5,27.0,29.76,North,1,3.0,3.0,50,0.00,,,0.00,Wunderground v.1.15,2013-03-02 20:10:00,
2013-03-02 15:15:00,44.7,27.2,29.76,North,359,3.0,5.0,50,0.00,,,0.00,Wunderground v.1.15,2013-03-02 20:15:00,
2013-03-02 15:20:00,45.1,26.6,29.76,North,359,3.0,4.0,48,0.00,,,0.00,Wunderground v.1.15,2013-03-02 20:20:00,
2013-03-02 15:25:00,45.1,27.6,29.76,North,359,3.0,4.0,50,0.00,,,0.00,Wunderground v.1.15,2013-03-02 20:25:00,
2013-03-02 15:35:00,44.8,26.8,29.76,North,359,2.0,4.0,49,0.00,,,0.00,Wunderground v.1.15,2013-03-02 20:35:00,
2013-03-02 15:40:00,44.5,26.5,29.76,North,359,2.0,4.0,49,0.00,,,0.00,Wunderground v.1.15,2013-03-02 20:40:00,
2013-03-02 15:45:00,44.3,26.8,29.76,North,359,2.0,4.0,50,0.00,,,0.00,Wunderground v.1.15,2013-03-02 20:45:00,
2013-03-02 15:55:00,43.9,26.4,29.76,North,359,2.0,4.0,50,0.00,,,0.00,Wunderground v.1.15,2013-03-02 20:55:00,
2013-03-02 16:00:00,43.7,26.7,29.76,North,359,2.0,4.0,51,0.00,,,0.00,Wunderground v.1.15,2013-03-02 21:00:00,
2013-03-02 16:05:00,43.6,26.2,29.76,North,359,1.0,4.0,50,0.00,,,0.00,Wunderground v.1.15,2013-03-02 21:05:00,
2013-03-02 16:10:00,43.6,26.6,29.76,North,359,1.0,4.0,51,0.00,,,0.00,Wunderground v.1.15,2013-03-02 21:10:00,
2013-03-02 16:15:00,43.7,27.2,29.76,North,2,1.0,4.0,52,0.00,,,0.00,Wunderground v.1.15,2013-03-02 21:15:00,
2013-03-02 16:25:00,43.4,26.9,29.76,North,359,2.0,4.0,52,0.00,,,0.00,Wunderground v.1.15,2013-03-02 21:25:00,
2013-03-02 16:30:00,43.2,26.7,29.76,North,359,2.0,4.0,52,0.00,,,0.00,Wunderground v.1.15,2013-03-02 21:30:00,
2013-03-02 16:35:00,43.0,26.6,29.76,North,2,2.0,4.0,52,0.00,,,0.00,Wunderground v.1.15,2013-03-02 21:35:00,
2013-03-02 16:40:00,42.9,26.9,29.76,North,5,2.0,4.0,53,0.00,,,0.00,Wunderground v.1.15,2013-03-02 21:40:00,
2013-03-02 16:50:00,42.8,27.3,29.77,NNE,18,1.0,4.0,54,0.00,,,0.00,Wunderground v.1.15,2013-03-02 21:50:00,
2013-03-02 16:55:00,42.8,26.4,29.77,North,359,0.0,4.0,52,0.00,,,0.00,Wunderground v.1.15,2013-03-02 21:55:00,
2013-03-02 17:00:00,42.8,26.8,29.77,North,359,0.0,4.0,53,0.00,,,0.00,Wunderground v.1.15,2013-03-02 22:00:00,
2013-03-02 17:10:00,42.6,27.1,29.77,NNE,29,2.0,2.0,54,0.00,,,0.00,Wunderground v.1.15,2013-03-02 22:10:00,
2013-03-02 17:15:00,42.5,26.6,29.78,NE,35,1.0,4.0,53,0.00,,,0.00,Wunderground v.1.15,2013-03-02 22:15:00,
2013-03-02 17:20:00,42.4,26.9,29.78,North,11,1.0,4.0,54,0.00,,,0.00,Wunderground v.1.15,2013-03-02 22:20:00,
2013-03-02 17:25:00,42.2,26.7,29.78,North,359,1.0,4.0,54,0.00,,,0.00,Wunderground v.1.15,2013-03-02 22:25:00,
2013-03-02 17:30:00,42.0,26.5,29.78,North,0,1.0,4.0,54,0.00,,,0.00,Wunderground v.1.15,2013-03-02 22:30:00,
2013-03-02 17:40:00,41.6,27.1,29.78,North,359,1.0,4.0,56,0.00,,,0.00,Wunderground v.1.15,2013-03-02 22:40:00,
2013-03-02 17:45:00,41.5,27.0,29.78,North,1,1.0,4.0,56,0.00,,,0.00,Wunderground v.1.15,2013-03-02 22:45:00,
2013-03-02 17:50:00,41.4,26.4,29.78,North,359,1.0,4.0,55,0.00,,,0.00,Wunderground v.1.15,2013-03-02 22:50:00,
2013-03-02 17:55:00,41.3,26.3,29.78,North,359,2.0,4.0,55,0.00,,,0.00,Wunderground v.1.15,2013-03-02 22:55:00,
2013-03-02 18:05:00,41.0,26.5,29.79,North,4,2.0,4.0,56,0.00,,,0.00,Wunderground v.1.15,2013-03-02 23:05:00,
2013-03-02 18:15:00,40.6,26.1,29.80,North,0,2.0,2.0,56,0.00,,,0.00,Wunderground v.1.15,2013-03-02 23:15:00,
2013-03-02 18:20:00,40.4,26.4,29.80,NNE,28,1.0,2.0,57,0.00,,,0.00,Wunderground v.1.15,2013-03-02 23:20:00,
2013-03-02 18:25:00,40.3,26.3,29.80,North,6,1.0,2.0,57,0.00,,,0.00,Wunderground v.1.15,2013-03-02 23:25:00,
2013-03-02 18:30:00,40.0,26.0,29.81,North,6,1.0,1.0,57,0.00,,,0.00,Wunderground v.1.15,2013-03-02 23:30:00,
2013-03-02 18:35:00,39.7,26.1,29.81,North,6,1.0,1.0,58,0.00,,,0.00,Wunderground v.1.15,2013-03-02 23:35:00,
2013-03-02 18:45:00,39.2,25.6,29.82,North,359,1.0,1.0,58,0.00,,,0.00,Wunderground v.1.15,2013-03-02 23:45:00,
2013-03-02 18:50:00,39.1,26.0,29.82,North,359,2.0,2.0,59,0.00,,,0.00,Wunderground v.1.15,2013-03-02 23:50:00,
2013-03-02 18:55:00,39.0,25.9,29.82,North,359,2.0,2.0,59,0.00,,,0.00,Wunderground v.1.15,2013-03-02 23:55:00,
2013-03-02 19:00:00,38.9,24.9,29.82,North,359,2.0,2.0,57,0.00,,,0.00,Wunderground v.1.15,2013-03-03 00:00:00,
2013-03-02 19:05:00,38.7,24.8,29.82,North,359,2.0,3.0,57,0.00,,,0.00,Wunderground v.1.15,2013-03-03 00:05:00,
2013-03-02 19:15:00,38.3,24.0,29.83,North,359,2.0,3.0,56,0.00,,,0.00,Wunderground v.1.15,2013-03-03 00:15:00,
2013-03-02 19:20:00,38.0,24.1,29.83,North,359,2.0,3.0,57,0.00,,,0.00,Wunderground v.1.15,2013-03-03 00:20:00,
2013-03-02 19:25:00,37.6,23.3,29.83,North,359,2.0,3.0,56,0.00,,,0.00,Wunderground v.1.15,2013-03-03 00:25:00,
2013-03-02 19:30:00,37.2,22.9,29.83,North,359,2.0,2.0,56,0.00,,,0.00,Wunderground v.1.15,2013-03-03 00:30:00,
2013-03-02 19:40:00,36.7,22.9,29.83,North,359,2.0,4.0,57,0.00,,,0.00,Wunderground v.1.15,2013-03-03 00:40:00,
2013-03-02 19:45:00,36.4,22.2,29.83,North,359,2.0,4.0,56,0.00,,,0.00,Wunderground v.1.15,2013-03-03 00:45:00,
2013-03-02 19:50:00,36.2,22.4,29.83,North,359,2.0,2.0,57,0.00,,,0.00,Wunderground v.1.15,2013-03-03 00:50:00,
2013-03-02 19:55:00,36.0,22.2,29.83,North,359,2.0,3.0,57,0.00,,,0.00,Wunderground v.1.15,2013-03-03 00:55:00,
2013-03-02 20:00:00,35.8,22.0,29.84,North,359,2.0,3.0,57,0.00,,,0.00,Wunderground v.1.15,2013-03-03 01:00:00,
2013-03-02 20:10:00,35.5,22.2,29.84,North,359,2.0,3.0,58,0.00,,,0.00,Wunderground v.1.15,2013-03-03 01:10:00,
2013-03-02 20:15:00,35.3,21.6,29.84,North,359,2.0,3.0,57,0.00,,,0.00,Wunderground v.1.15,2013-03-03 01:15:00,
2013-03-02 20:20:00,35.2,21.9,29.84,North,359,2.0,3.0,58,0.00,,,0.00,Wunderground v.1.15,2013-03-03 01:20:00,
2013-03-02 20:25:00,35.0,21.7,29.84,North,359,2.0,3.0,58,0.00,,,0.00,Wunderground v.1.15,2013-03-03 01:25:00,
2013-03-02 20:35:00,34.6,21.7,29.85,North,359,1.0,3.0,59,0.00,,,0.00,Wunderground v.1.15,2013-03-03 01:35:00,
2013-03-02 20:40:00,34.5,21.6,29.85,North,359,2.0,2.0,59,0.00,,,0.00,Wunderground v.1.15,2013-03-03 01:40:00,
2013-03-02 20:45:00,34.3,21.8,29.85,North,359,1.0,3.0,60,0.00,,,0.00,Wunderground v.1.15,2013-03-03 01:45:00,
2013-03-02 20:50:00,34.1,21.7,29.85,North,359,1.0,3.0,60,0.00,,,0.00,Wunderground v.1.15,2013-03-03 01:50:00,
2013-03-02 20:55:00,33.9,21.9,29.85,North,359,1.0,3.0,61,0.00,,,0.00,Wunderground v.1.15,2013-03-03 01:55:00,
2013-03-02 21:05:00,33.6,21.6,29.86,North,359,1.0,3.0,61,0.00,,,0.00,Wunderground v.1.15,2013-03-03 02:05:00,
2013-03-02 21:10:00,33.4,21.4,29.86,North,359,2.0,3.0,61,0.00,,,0.00,Wunderground v.1.15,2013-03-03 02:10:00,
2013-03-02 21:15:00,33.4,21.4,29.86,North,359,1.0,3.0,61,0.00,,,0.00,Wunderground v.1.15,2013-03-03 02:15:00,
2013-03-02 21:20:00,33.2,21.2,29.86,North,359,1.0,3.0,61,0.00,,,0.00,Wunderground v.1.15,2013-03-03 02:20:00,
2013-03-02 21:25:00,33.1,21.1,29.86,North,359,1.0,3.0,61,0.00,,,0.00,Wunderground v.1.15,2013-03-03 02:25:00,
2013-03-02 21:35:00,32.8,21.2,29.86,North,359,1.0,3.0,62,0.00,,,0.00,Wunderground v.1.15,2013-03-03 02:35:00,
2013-03-02 21:40:00,32.7,21.1,29.86,North,359,1.0,3.0,62,0.00,,,0.00,Wunderground v.1.15,2013-03-03 02:40:00,
2013-03-02 21:45:00,32.6,21.0,29.86,North,359,1.0,3.0,62,0.00,,,0.00,Wunderground v.1.15,2013-03-03 02:45:00,
2013-03-02 21:50:00,32.5,20.9,29.86,North,359,1.0,3.0,62,0.00,,,0.00,Wunderground v.1.15,2013-03-03 02:50:00,
2013-03-02 22:00:00,32.3,20.7,29.86,North,359,1.0,3.0,62,0.00,,,0.00,Wunderground v.1.15,2013-03-03 03:00:00,
2013-03-02 22:05:00,32.2,20.6,29.86,North,359,1.0,3.0,62,0.00,,,0.00,Wunderground v.1.15,2013-03-03 03:05:00,
2013-03-02 22:10:00,32.1,20.5,29.86,North,359,1.0,3.0,62,0.00,,,0.00,Wunderground v.1.15,2013-03-03 03:10:00,
2013-03-02 22:15:00,32.0,20.4,29.86,North,359,1.0,3.0,62,0.00,,,0.00,Wunderground v.1.15,2013-03-03 03:15:00,
2013-03-02 22:25:00,31.6,20.4,29.86,North,359,1.0,3.0,63,0.00,,,0.00,Wunderground v.1.15,2013-03-03 03:25:00,
2013-03-02 22:30:00,31.4,20.6,29.86,North,359,1.0,3.0,64,0.00,,,0.00,Wunderground v.1.15,2013-03-03 03:30:00,
2013-03-02 22:35:00,31.2,20.4,29.86,North,359,1.0,3.0,64,0.00,,,0.00,Wunderground v.1.15,2013-03-03 03:35:00,
2013-03-02 22:40:00,31.1,20.3,29.86,North,359,1.0,3.0,64,0.00,,,0.00,Wunderground v.1.15,2013-03-03 03:40:00,
2013-03-02 22:50:00,30.9,20.5,29.86,North,359,1.0,3.0,65,0.00,,,0.00,Wunderground v.1.15,2013-03-03 03:50:00,
2013-03-02 22:55:00,30.8,20.0,29.86,North,359,1.0,3.0,64,0.00,,,0.00,Wunderground v.1.15,2013-03-03 03:55:00,
2013-03-02 23:00:00,30.8,20.0,29.86,North,359,1.0,3.0,64,0.00,,,0.00,Wunderground v.1.15,2013-03-03 04:00:00,
2013-03-02 23:05:00,30.7,20.3,29.86,North,359,0.0,3.0,65,0.00,,,0.00,Wunderground v.1.15,2013-03-03 04:05:00,
2013-03-02 23:15:00,30.5,20.1,29.85,North,359,1.0,3.0,65,0.00,,,0.00,Wunderground v.1.15,2013-03-03 04:15:00,
2013-03-02 23:20:00,30.4,20.0,29.85,North,359,1.0,3.0,65,0.00,,,0.00,Wunderground v.1.15,2013-03-03 04:20:00,
2013-03-02 23:25:00,30.3,19.9,29.85,North,359,1.0,3.0,65,0.00,,,0.00,Wunderground v.1.15,2013-03-03 04:25:00,
2013-03-02 23:30:00,30.3,19.6,29.85,North,359,1.0,3.0,64,0.00,,,0.00,Wunderground v.1.15,2013-03-03 04:30:00,
2013-03-02 23:35:00,30.3,19.9,29.85,North,359,1.0,3.0,65,0.00,,,0.00,Wunderground v.1.15,2013-03-03 04:35:00,
2013-03-02 23:45:00,30.2,19.8,29.85,North,359,1.0,3.0,65,0.00,,,0.00,Wunderground v.1.15,2013-03-03 04:45:00,
2013-03-02 23:50:00,30.2,19.8,29.85,North,359,1.0,3.0,65,0.00,,,0.00,Wunderground v.1.15,2013-03-03 04:50:00,
2013-03-02 23:55:00,30.1,19.7,29.85,North,359,1.0,3.0,65,0.00,,,0.00,Wunderground v.1.15,2013-03-03 04:55:00,